Time,TemperatureF,DewpointF,PressureIn,WindDirection,WindDirectionDegrees,WindSpeedMPH,WindSpeedGustMPH,Humidity,HourlyPrecipIn,Conditions,Clouds,dailyrainin,SoftwareType,DateUTC
2013-03-20 00:02:00,20.0,10.0,30.05,WNW,296,10.0,18.0,65,0.00,,,0.00,,2013-03-20 05:02:00,
2013-03-20 00:12:00,20.0,10.0,30.05,NW,309,10.0,18.0,65,0.00,,,0.00,,2013-03-20 05:12:00,
2013-03-20 00:22:00,20.0,10.0,30.05,NW,309,10.0,18.0,65,0.00,,,0.00,,2013-03-20 05:22:00,
2013-03-20 00:32:00,20.0,10.0,30.05,NW,304,9.0,18.0,65,0.00,,,0.00,,2013-03-20 05:32:00,
2013-03-20 00:42:00,20.0,10.0,30.05,NW,304,9.0,18.0,65,0.00,,,0.00,,2013-03-20 05:42:00,
2013-03-20 00:53:00,20.0,10.0,30.05,NW,309,11.0,19.0,65,0.00,,,0.00,,2013-03-20 05:53:00,
2013-03-20 01:02:00,19.0,9.0,30.05,West,272,11.0,19.0,65,0.00,,,0.00,,2013-03-20 06:02:00,
2013-03-20 01:12:00,19.0,9.0,30.05,West,272,11.0,19.0,65,0.00,,,0.00,,2013-03-20 06:12:00,
2013-03-20 01:22:00,19.0,9.0,30.05,NW,304,9.0,19.0,65,0.00,,,0.00,,2013-03-20 06:22:00,
2013-03-20 01:32:00,18.0,8.0,30.05,WNW,290,12.0,20.0,65,0.00,,,0.00,,2013-03-20 06:32:00,
2013-03-20 01:42:00,18.0,8.0,30.05,WNW,290,12.0,20.0,65,0.00,,,0.00,,2013-03-20 06:42:00,
2013-03-20 01:53:00,18.0,8.0,30.05,NW,312,10.0,20.0,65,0.00,,,0.00,,2013-03-20 06:53:00,
2013-03-20 02:02:00,18.0,8.0,30.05,NW,317,10.0,20.0,65,0.00,,,0.00,,2013-03-20 07:02:00,
2013-03-20 02:12:00,18.0,8.0,30.05,NW,317,10.0,20.0,65,0.00,,,0.00,,2013-03-20 07:12:00,
2013-03-20 02:22:00,17.0,8.0,30.05,NW,313,9.0,18.0,66,0.00,,,0.00,,2013-03-20 07:22:00,
2013-03-20 02:32:00,17.0,8.0,30.05,WNW,303,11.0,21.0,66,0.00,,,0.00,,2013-03-20 07:32:00,
2013-03-20 02:42:00,17.0,8.0,30.05,WNW,303,11.0,21.0,66,0.00,,,0.00,,2013-03-20 07:42:00,
2013-03-20 02:52:00,16.0,7.0,30.05,West,277,9.0,19.0,66,0.00,,,0.00,,2013-03-20 07:52:00,
2013-03-20 03:02:00,16.0,7.0,30.05,West,271,10.0,18.0,68,0.00,,,0.00,,2013-03-20 08:02:00,
2013-03-20 03:12:00,16.0,7.0,30.05,West,271,10.0,18.0,68,0.00,,,0.00,,2013-03-20 08:12:00,
2013-03-20 03:22:00,16.0,7.0,30.05,WNW,292,10.0,21.0,67,0.00,,,0.00,,2013-03-20 08:22:00,
2013-03-20 03:32:00,15.0,6.0,30.05,WNW,302,10.0,17.0,68,0.00,,,0.00,,2013-03-20 08:32:00,
2013-03-20 03:42:00,15.0,6.0,30.05,WNW,302,10.0,17.0,68,0.00,,,0.00,,2013-03-20 08:42:00,
2013-03-20 03:52:00,15.0,6.0,30.05,NW,309,12.0,19.0,67,0.00,,,0.00,,2013-03-20 08:52:00,
2013-03-20 04:02:00,15.0,6.0,30.05,WNW,284,9.0,23.0,67,0.00,,,0.00,,2013-03-20 09:02:00,
2013-03-20 04:12:00,15.0,6.0,30.05,WNW,284,9.0,23.0,67,0.00,,,0.00,,2013-03-20 09:12:00,
2013-03-20 04:22:00,14.0,5.0,30.04,West,277,11.0,19.0,67,0.00,,,0.00,,2013-03-20 09:22:00,
2013-03-20 04:32:00,14.0,5.0,30.04,West,273,11.0,20.0,68,0.00,,,0.00,,2013-03-20 09:32:00,
2013-03-20 04:43:00,14.0,5.0,30.04,West,273,11.0,20.0,68,0.00,,,0.00,,2013-03-20 09:43:00,
2013-03-20 04:53:00,14.0,5.0,30.04,West,280,11.0,22.0,68,0.00,,,0.00,,2013-03-20 09:53:00,
2013-03-20 05:03:00,13.0,4.0,30.05,West,276,12.0,19.0,68,0.00,,,0.00,,2013-03-20 10:03:00,
2013-03-20 05:12:00,13.0,4.0,30.05,West,276,12.0,19.0,68,0.00,,,0.00,,2013-03-20 10:12:00,
2013-03-20 05:22:00,13.0,4.0,30.05,West,276,10.0,17.0,68,0.00,,,0.00,,2013-03-20 10:22:00,
2013-03-20 05:32:00,12.0,4.0,30.05,WNW,291,10.0,18.0,68,0.00,,,0.00,,2013-03-20 10:32:00,
2013-03-20 05:42:00,12.0,4.0,30.05,WNW,291,10.0,18.0,68,0.00,,,0.00,,2013-03-20 10:42:00,
2013-03-20 05:53:00,12.0,4.0,30.06,WNW,296,9.0,15.0,69,0.00,,,0.00,,2013-03-20 10:53:00,
2013-03-20 06:03:00,12.0,4.0,30.06,WNW,296,8.0,16.0,68,0.00,,,0.00,,2013-03-20 11:03:00,
2013-03-20 06:12:00,12.0,4.0,30.06,WNW,296,8.0,16.0,68,0.00,,,0.00,,2013-03-20 11:12:00,
2013-03-20 06:22:00,11.0,3.0,30.06,WNW,286,8.0,19.0,69,0.00,,,0.00,,2013-03-20 11:22:00,
2013-03-20 06:32:00,11.0,3.0,30.06,NW,309,12.0,20.0,68,0.00,,,0.00,,2013-03-20 11:32:00,
2013-03-20 06:42:00,11.0,3.0,30.06,NW,309,12.0,20.0,68,0.00,,,0.00,,2013-03-20 11:42:00,
2013-03-20 06:52:00,11.0,2.0,30.06,NW,310,8.0,16.0,67,0.00,,,0.00,,2013-03-20 11:52:00,
2013-03-20 07:02:00,11.0,3.0,30.07,West,273,9.0,17.0,68,0.00,,,0.00,,2013-03-20 12:02:00,
2013-03-20 07:12:00,11.0,3.0,30.07,West,273,9.0,17.0,68,0.00,,,0.00,,2013-03-20 12:12:00,
2013-03-20 07:22:00,10.0,1.0,30.07,NW,309,10.0,20.0,67,0.00,,,0.00,,2013-03-20 12:22:00,
2013-03-20 07:32:00,10.0,1.0,30.07,West,263,9.0,17.0,67,0.00,,,0.00,,2013-03-20 12:32:00,
2013-03-20 07:42:00,10.0,1.0,30.07,West,263,9.0,17.0,67,0.00,,,0.00,,2013-03-20 12:42:00,
2013-03-20 07:52:00,10.0,2.0,30.07,West,281,9.0,18.0,68,0.00,,,0.00,,2013-03-20 12:52:00,
2013-03-20 08:03:00,10.0,1.0,30.08,NW,319,13.0,21.0,66,0.00,,,0.00,,2013-03-20 13:03:00,
2013-03-20 08:12:00,10.0,1.0,30.08,NW,319,13.0,21.0,66,0.00,,,0.00,,2013-03-20 13:12:00,
2013-03-20 08:22:00,10.0,1.0,30.08,NW,318,11.0,23.0,65,0.00,,,0.00,,2013-03-20 13:22:00,
2013-03-20 08:32:00,10.0,0.0,30.08,NNW,329,13.0,22.0,64,0.00,,,0.00,,2013-03-20 13:32:00,
2013-03-20 08:42:00,10.0,0.0,30.08,NNW,329,13.0,22.0,64,0.00,,,0.00,,2013-03-20 13:42:00,
2013-03-20 08:53:00,10.0,0.0,30.08,WNW,290,11.0,22.0,64,0.00,,,0.00,,2013-03-20 13:53:00,
2013-03-20 09:02:00,11.0,1.0,30.08,NW,309,12.0,26.0,64,0.00,,,0.00,,2013-03-20 14:02:00,
2013-03-20 09:12:00,11.0,1.0,30.08,NW,309,12.0,26.0,64,0.00,,,0.00,,2013-03-20 14:12:00,
2013-03-20 09:23:00,11.0,1.0,30.08,WNW,288,13.0,24.0,62,0.00,,,0.00,,2013-03-20 14:23:00,
2013-03-20 09:33:00,11.0,1.0,30.08,NNW,341,13.0,23.0,62,0.00,,,0.00,,2013-03-20 14:33:00,
2013-03-20 09:42:00,11.0,1.0,30.08,NNW,341,13.0,23.0,62,0.00,,,0.00,,2013-03-20 14:42:00,
2013-03-20 09:52:00,11.0,1.0,30.07,WNW,301,14.0,23.0,63,0.00,,,0.00,,2013-03-20 14:52:00,
2013-03-20 10:02:00,11.0,1.0,30.07,NW,311,10.0,23.0,64,0.00,,,0.00,,2013-03-20 15:02:00,
2013-03-20 10:12:00,12.0,2.0,30.08,NW,312,9.0,23.0,63,0.00,,,0.00,,2013-03-20 15:12:00,
2013-03-20 10:22:00,12.0,2.0,30.08,NW,312,9.0,23.0,63,0.00,,,0.00,,2013-03-20 15:22:00,
2013-03-20 10:33:00,12.0,2.0,30.07,WNW,297,12.0,22.0,63,0.00,,,0.00,,2013-03-20 15:33:00,
2013-03-20 10:43:00,12.0,2.0,30.07,WNW,297,12.0,22.0,63,0.00,,,0.00,,2013-03-20 15:43:00,
2013-03-20 10:53:00,12.0,2.0,30.07,WNW,295,8.0,20.0,63,0.00,,,0.00,,2013-03-20 15:53:00,
2013-03-20 11:03:00,12.0,2.0,30.07,WNW,292,9.0,18.0,62,0.00,,,0.00,,2013-03-20 16:03:00,
2013-03-20 11:12:00,12.0,2.0,30.07,WNW,292,9.0,18.0,62,0.00,,,0.00,,2013-03-20 16:12:00,
2013-03-20 11:23:00,13.0,3.0,30.08,NW,321,11.0,19.0,63,0.00,,,0.00,,2013-03-20 16:23:00,
2013-03-20 11:32:00,13.0,2.0,30.08,NW,315,11.0,19.0,62,0.00,,,0.00,,2013-03-20 16:32:00,
2013-03-20 11:42:00,13.0,2.0,30.08,NW,315,11.0,19.0,62,0.00,,,0.00,,2013-03-20 16:42:00,
2013-03-20 11:53:00,14.0,4.0,30.07,West,279,11.0,21.0,63,0.00,,,0.00,,2013-03-20 16:53:00,
2013-03-20 12:03:00,14.0,3.0,30.07,NW,314,11.0,18.0,62,0.00,,,0.00,,2013-03-20 17:03:00,
2013-03-20 12:12:00,14.0,3.0,30.07,NW,314,11.0,18.0,62,0.00,,,0.00,,2013-03-20 17:12:00,
2013-03-20 12:22:00,14.0,3.0,30.07,WNW,290,11.0,23.0,62,0.00,,,0.00,,2013-03-20 17:22:00,
2013-03-20 12:32:00,15.0,4.0,30.06,WNW,285,11.0,21.0,62,0.00,,,0.00,,2013-03-20 17:32:00,
2013-03-20 12:42:00,15.0,4.0,30.06,WNW,285,11.0,21.0,62,0.00,,,0.00,,2013-03-20 17:42:00,
2013-03-20 12:53:00,15.0,4.0,30.06,West,273,11.0,23.0,61,0.00,,,0.00,,2013-03-20 17:53:00,
2013-03-20 13:02:00,15.0,4.0,30.06,WNW,286,11.0,21.0,61,0.00,,,0.00,,2013-03-20 18:02:00,
2013-03-20 13:12:00,15.0,4.0,30.06,WNW,286,11.0,21.0,61,0.00,,,0.00,,2013-03-20 18:12:00,
2013-03-20 13:33:00,17.0,6.0,30.06,WNW,292,12.0,20.0,60,0.00,,,0.00,,2013-03-20 18:33:00,
2013-03-20 13:42:00,17.0,6.0,30.06,WNW,292,12.0,20.0,60,0.00,,,0.00,,2013-03-20 18:42:00,
2013-03-20 13:52:00,16.0,5.0,30.06,WNW,297,10.0,22.0,62,0.00,,,0.00,,2013-03-20 18:52:00,
2013-03-20 14:02:00,17.0,6.0,30.05,WNW,299,13.0,24.0,60,0.00,,,0.00,,2013-03-20 19:02:00,
2013-03-20 14:12:00,17.0,6.0,30.05,WNW,299,13.0,24.0,60,0.00,,,0.00,,2013-03-20 19:12:00,
2013-03-20 14:22:00,17.0,6.0,30.05,West,271,14.0,20.0,60,0.00,,,0.00,,2013-03-20 19:22:00,
2013-03-20 14:32:00,17.0,6.0,30.04,WSW,246,7.0,21.0,61,0.00,,,0.00,,2013-03-20 19:32:00,
2013-03-20 14:42:00,17.0,6.0,30.04,WSW,246,7.0,21.0,61,0.00,,,0.00,,2013-03-20 19:42:00,
2013-03-20 14:53:00,18.0,6.0,30.04,West,277,11.0,21.0,59,0.00,,,0.00,,2013-03-20 19:53:00,
2013-03-20 15:02:00,17.0,5.0,30.04,NW,309,11.0,18.0,59,0.00,,,0.00,,2013-03-20 20:02:00,
2013-03-20 15:12:00,17.0,5.0,30.04,NW,309,11.0,18.0,59,0.00,,,0.00,,2013-03-20 20:12:00,
2013-03-20 15:22:00,17.0,5.0,30.04,NW,309,11.0,18.0,59,0.00,,,0.00,,2013-03-20 20:22:00,
2013-03-20 15:32:00,17.0,5.0,30.04,NW,309,11.0,18.0,59,0.00,,,0.00,,2013-03-20 20:32:00,
2013-03-20 15:42:00,17.0,5.0,30.04,NW,309,11.0,18.0,59,0.00,,,0.00,,2013-03-20 20:42:00,